Regional Weather Roundup
Issued by NWS Sterling, VA

Home | Current Version | Previous Version | Text Only | Print | Product List | Glossary Off
Versions: 1 2 3 4 5 6 7 8 9 10 11 12 13 14 15 16 17 18 19 20 21 22 23 24 25 26 27 28 29 30 31 32 33 34 35 36 37 38 39 40 41 42 43 44 45 46 47 48 49 50

000
ASUS41 KLWX 051610
RWRLWX

REGIONAL WEATHER ROUNDUP
NATIONAL WEATHER SERVICE BALTIMORE MD/WASHINGTON DC
1200 PM EDT SAT SEP 05 2015

Note: "FAIR" indicates few or no clouds below 12,000 feet
with no significant weather and/or obstructions to visibility.
 TC=TEMPERATURE CELSIUS

 * =Non NWS site. Station does not report precipitation (e.g. rain,
    snow, etc.), thunder, or fog.

DCZ001-MDZ009-015-VAZ040>042-051-053>054-051700-
WASHINGTON METRO

CITY           SKY/WX    TMP DP  RH WIND       PRES   REMARKS
WASHINGTON NAT PTSUNNY   81  65  58 NE8       30.23F
DULLES         CLOUDY    78  65  63 E7        30.24S
ANDREWS AFB    MOSUNNY   81  65  58 NE9       30.23S
FT BELVOIR     PTSUNNY   82  67  60 VRB5      30.22F
QUANTICO       MOSUNNY   81  67  62 NE9       30.23F
COLLEGE PARK*  PTSUNNY   81  64  57 NE7       30.23F
LEESBURG*      CLOUDY    79  68  69 E5        30.26S
MANASSAS*      CLOUDY    81  66  61 E3        30.23F
GAITHERSBURG*  PTSUNNY   79  64  61 N3        30.29S

$$

MDZ006>007-011-014-051700-
BALTIMORE METRO

CITY           SKY/WX    TMP DP  RH WIND       PRES   REMARKS
BWI AIRPORT    MOSUNNY   80  63  55 NE9       30.24F
MD SCIENCE CTR   N/A     79  64  60 MISG      30.24F
MARTIN STATE   MOSUNNY   81  70  69 NE5       30.26S
ANNAPOLIS      MOSUNNY   77  67  71 N9        30.23F
FORT MEADE*    SUNNY     79  63  57 E7        30.26F

$$

MDZ012-015-019>023-051700-
MARYLAND EASTERN SHORE

CITY           SKY/WX    TMP DP  RH WIND       PRES   REMARKS
OCEAN CITY     MOSUNNY   80  66  62 NE16G24   30.21S
SALISBURY      PTSUNNY   80  66  62 NE15      30.21R
BAY BRIDGE AP*   N/A     79  63  57 N7        30.24S
CAMBRIDGE*     PTSUNNY   81  63  54 NE9       30.21S

$$

MDZ017>025-051700-
SOUTHERN MARYLAND

CITY           SKY/WX    TMP DP  RH WIND       PRES   REMARKS
PATUXENT RIVER PTSUNNY   80  67  64 N13       30.21S
ST INIGOES     CLOUDY    80  68  66 VRB7      30.21R
LEONARDTOWN*   NOT AVBL

$$

MDZ003>005-051700-
NORTH CENTRAL MARYLAND

CITY           SKY/WX    TMP DP  RH WIND       PRES   REMARKS
FREDERICK*     PTSUNNY   79  64  61 NE3       30.28
HAGERSTOWN APT PTSUNNY   77  65  66 E6        30.26F
WESTMINSTER*   MOSUNNY   77  64  65 CALM      30.28S

$$

MDZ501>502-051700-
WESTERN MARYLAND

CITY           SKY/WX    TMP DP  RH WIND       PRES   REMARKS
OAKLAND*       PTSUNNY   70  63  78 SE8       30.32S HAZE
CUMBERLAND*    CLOUDY    77  68  73 SE3       30.29S

$$

VAZ025>031-051700-
SHENANDOAH VALLEY

CITY           SKY/WX    TMP DP  RH WIND       PRES   REMARKS
WINCHESTER*    MOSUNNY   77  66  69 E8        30.26S
FRONT ROYAL*   FAIR      77  66  69 E6        30.25R
LURAY*         PTSUNNY   79  63  57 E5        30.25S
NEW MARKET*    FAIR      79  68  69 E6        30.23F
STAUNTON*      PTSUNNY   82  65  57 E7        30.27S
WAYNESBORO*    FAIR      77  66  68 E8        30.27S

$$

WVZ021-048>050-054>055-051700-
EASTERN WEST VIRGINIA PANHANDLE

CITY           SKY/WX    TMP DP  RH WIND       PRES   REMARKS
MARTINSBURG    CLOUDY    76  65  68 E6        30.26S
PETERSBURG*    CLOUDY    79  68  68 NE3       30.25S

$$

VAZ036>039-050-051700-
CENTRAL FOOTHILLS

CITY           SKY/WX    TMP DP  RH WIND       PRES   REMARKS
CHARLOTTESVILL PTSUNNY   78  68  71 E7        30.23F
CULPEPER*      CLOUDY    77  69  75 N7        30.24S
ORANGE*        PTSUNNY   81  68  65 N7        30.23F
GORDONSVILLE*  FAIR      80  69  67 NE9       30.21F
WARRENTON*     PTSUNNY   79  70  74 NE8       30.23F

$$

VAZ055>057-051700-
NORTH AND CENTRAL PIEDMONT

CITY           SKY/WX    TMP DP  RH WIND       PRES   REMARKS
FREDERICKSBRG* PTSUNNY   79  69  69 NE8       30.21F
STAFFORD*      PTSUNNY   79  66  64 NE5       30.26S

$$

NCZ024-NYZ072-PAZ021-071-VAZ022-071-051700-
OTHER REGIONAL OBSERVATIONS

CITY           SKY/WX    TMP DP  RH WIND       PRES   REMARKS
NEW YORK CITY  SUNNY     76  53  44 VRB5      30.30F
PHILADELPHIA   MOSUNNY   81  59  47 N8        30.25S
PITTSBURGH     MOSUNNY   83  65  54 S8        30.21S
ROANOKE        PTSUNNY   77  67  71 VRB5      30.25F
RICHMOND       PTSUNNY   83  68  60 NE10G16   30.19S
RALEIGH        PTSUNNY   79  69  71 NE10      30.18S

$$

ANZ530>537-051700-
MARINE OBSERVATIONS

STATION/POSITION TIME  TEMP    WIND        PRES
                       AIR SEA DIR/SP/G
                 (UTC) (F)     (DEG/KT/KT) (MB)
THOMAS PT LIGHT  NOT AVBL
BALT KEY BRIDGE  1500   75      60/  5/  8 1024.3R
COVE POINT       1500   74      40/ 10/ 15 1024.0R
LEWISETTA        1500   78 81   70/  9/ 13 1022.4R
SOLOMONS ISLAND  1500      82                N/A
PINEY POINT      1505           90/  9/ 12   N/A

$$




USA.gov is the U.S. government's official web portal to all federal, state and local government web resources and services.